Weather History for Upington, South Africa

Change the Weather History Date:

Thursday, February 7, 2013

  Actual Average Record
Temperature  
Mean Temperature 84 °F -  
Max Temperature 104 °F 92 °F 107 °F (1998)
Min Temperature 64 °F 64 °F 60 °F (2002)
Cooling Degree Days 19    
Growing Degree Days 34 (Base 50)    
Moisture  
Dew Point 28 °F    
Average Humidity 12    
Maximum Humidity 26    
Minimum Humidity 4    
Precipitation  
Precipitation 0.00 in 0.05 in - ()
Sea Level Pressure  
Sea Level Pressure 29.89 in    
Wind  
Wind Speed 5 mph ()    
Max Wind Speed 15 mph    
Max Gust Speed 26 mph    
Visibility 6.2 miles    
Events      
Averages and records for this station are not official NWS values.
T = Trace of Precipitation, MM = Missing Value Source: Averaged Metar Reports

Daily Weather History Graph

Daily Weather History Graph

Search for Another Location

Airport:

Trip Planner

Search our weather history database for the weather conditions in past years. The results will help you decide how hot, cold, wet, or windy it might be!

Date:

Astronomy

Feb. 07, 2013 Rise Set
Actual Time 6:11 AM SAST 7:26 PM SAST
Civil Twilight 5:46 AM SAST 7:51 PM SAST
Nautical Twilight 5:16 AM SAST 8:21 PM SAST
Astronomical Twilight 4:45 AM SAST 8:51 PM SAST
Moon 3:00 AM SAST (2/7) 4:59 PM SAST (2/7)
Length of Visible Light 14h 05m
Length of Day
13h 15m
Waning Crescent, 11% of the Moon is Illuminated
Feb 7
Waning Crescent
Feb 10
New
Feb 17
First Quarter
Feb 25
Full
Mar 4
Last Quarter

Hourly Weather History & Observations

Time (SAST) Temp. Dew Point Humidity Pressure Visibility Wind Dir Wind Speed Gust Speed Precip Events Conditions
12:00 AM 80.6 °F 23.0 °F 12% 29.92 in - SW 5.8 mph - N/A   Clear
1:00 AM 77.0 °F 24.8 °F 14% 29.92 in - SSW 5.8 mph - N/A   Clear
2:00 AM 76 °F 25 °F 7%  in 25 mi SSW 3.5 mph - -  
2:00 AM 75.2 °F 26.6 °F 17% 29.92 in - SSW 3.5 mph - N/A   Clear
3:00 AM 75.2 °F 26.6 °F 17% 29.92 in - SSW 2.3 mph - N/A   Clear
4:00 AM 73.4 °F 28.4 °F 19% 29.92 in - SSW 2.3 mph - N/A   Clear
5:00 AM 68 °F 28 °F 12%  in 25 mi NW 3.5 mph - -   Scattered Clouds
5:00 AM 66.2 °F 28.4 °F 24% 29.92 in - NW 3.5 mph - N/A   Clear
6:00 AM 64.4 °F 28.4 °F 26% 29.95 in - WNW 5.8 mph - N/A   Clear
6:46 AM 68.0 °F 28.4 °F 23% 29.95 in - NW 3.5 mph - N/A   Clear
7:00 AM 69.8 °F 28.4 °F 21% 29.95 in - NW 4.6 mph - N/A   Clear
7:10 AM 73.4 °F 28.4 °F 19% 29.92 in - WNW 2.3 mph - N/A   Clear
7:41 AM 78.8 °F 26.6 °F 15% 29.95 in - WSW 3.5 mph - N/A   Clear
8:00 AM 79 °F 26 °F 7%  in 25 mi SW 3.5 mph - -   Scattered Clouds
8:00 AM 78.8 °F 26.6 °F 15% 29.95 in - SW 2.3 mph - N/A   Clear
8:27 AM 82.4 °F 28.4 °F 14% 29.95 in - South 1.2 mph - N/A   Clear
9:00 AM 84.2 °F 28.4 °F 13% 29.95 in - NW 2.3 mph - N/A   Clear
9:13 AM 87.8 °F 28.4 °F 12% 29.95 in - NNE 3.5 mph - N/A   Clear
10:00 AM 87.8 °F 26.6 °F 11% 29.95 in - North 5.8 mph - N/A   Clear
10:39 AM 91.4 °F 26.6 °F 10% 29.92 in - North 4.6 mph - N/A   Clear
11:00 AM 93 °F 27 °F 4%  in 25 mi NW 5.8 mph - -   Scattered Clouds
11:00 AM 93.2 °F 28.4 °F 10% 29.92 in - NW 4.6 mph - N/A   Clear
11:18 AM 96.8 °F 28.4 °F 9% 29.89 in - North 4.6 mph - N/A   Clear
12:00 PM 96.8 °F 28.4 °F 9% 29.89 in 6.2 mi NNW 4.6 mph - N/A   Partly Cloudy
1:00 PM 98.6 °F 32.0 °F 10% 29.86 in 6.2 mi West 8.1 mph - N/A   Partly Cloudy
2:00 PM 102 °F 31 °F 4%  in 25 mi NW 3.5 mph - -   Scattered Clouds
2:00 PM 100.4 °F 32.0 °F 9% 29.83 in 6.2 mi NW 3.5 mph - N/A   Partly Cloudy
3:00 PM 102.2 °F 32.0 °F 9% 29.80 in 6.2 mi West 10.4 mph 23.0 mph N/A   Partly Cloudy
4:00 PM 104.0 °F 32.0 °F 8% 29.77 in 6.2 mi WNW 10.4 mph - N/A   Partly Cloudy
5:00 PM 103 °F 31 °F 4%  in 25 mi WSW 15.0 mph - -   Scattered Clouds
5:00 PM 102.2 °F 32.0 °F 9% 29.77 in - WSW 13.8 mph 26.5 mph N/A   Unknown
6:00 PM 100.4 °F 32.0 °F 9% 29.74 in 6.2 mi SSW 15.0 mph - N/A   Partly Cloudy
7:00 PM 95.0 °F 30.2 °F 10% 29.77 in 6.2 mi SSW 11.5 mph - N/A   Partly Cloudy
8:00 PM 91 °F 30 °F 5%  in 25 mi SSW 6.9 mph - -   Scattered Clouds
8:00 PM 89.6 °F 30.2 °F 12% 29.80 in 6.2 mi SSW 5.8 mph - N/A   Partly Cloudy
9:00 PM 86.0 °F 30.2 °F 13% 29.83 in - SW 6.9 mph - N/A   Unknown
10:00 PM 80.6 °F 28.4 °F 15% 29.83 in - SW 5.8 mph - N/A   Unknown
11:00 PM 79 °F 24 °F 6%  in - WSW 5.8 mph - -  
11:00 PM 78.8 °F 24.8 °F 14% 29.86 in - WSW 4.6 mph - N/A   Unknown